AirNav   Air Wisconsin pilot careers
 
 275 users online  

19IN Resler Airport
Churubusco, Indiana, USA


FAA INFORMATION EFFECTIVE 09 NOVEMBER 2017

Location

FAA Identifier: 19IN
Lat/Long: 41-17-04.0000N / 085-21-39.0000W
41-17.066667N / 085-21.650000W
41.2844444 / -85.3608333
(estimated)
Elevation: 920 ft. / 280 m (estimated)
From city: 4 miles NNW of CHURUBUSCO, IN
Time zone: UTC -5 (UTC -4 during Daylight Saving Time)
Zip code: 46723

Airport Operations

Airport use: Private use. Permission required prior to landing
Activation date: 04/2011
Control tower: no
ARTCC: CHICAGO CENTER
FSS: TERRE HAUTE FLIGHT SERVICE STATION
Attendance: UNATNDD
Wind indicator: yes
Segmented circle: no

Airport Communications

WX AWOS-3P at C62 (12 nm N): 119.925 (260-347-2967)
WX AWOS-3 at SMD (13 nm SE): 124.55 (260-490-4030)
WX AWOS-3 at GWB (13 nm E): 124.15 (260-925-8225)
WX ASOS at FWA (20 nm S): PHONE 260-479-6621

Nearby radio navigation aids

VOR radial/distance  VOR name  Freq  Var
OLKr073/(6.6)WEBSTER LAKE VOR110.4003W
FWAr343/19.9FORT WAYNE VORTAC117.8006W
GSHr116/33.3GOSHEN VORTAC113.7000E

 
NDB name  Hdg/Dist  Freq  Var  ID
ANGOLA215/24.634705WANQ .- -. --.-
HUNTINGTON013/26.241703WHHG .... .... --.
STURGIS178/31.938204WIRS .. .-. ...

Airport Services

Runway Information

Runway 11/29

Dimensions: 1500 x 100 ft. / 457 x 30 m
Surface: turf
RUNWAY 11  RUNWAY 29
Traffic pattern: rightleft

Airport Ownership and Management from official FAA records

Ownership: Privately-owned
Owner: DAVID & LARAMIE RESLER
4719 S 300 E
CHURUBUSCO, IN 46723
Phone 260-693-6191
Manager: DAVID & LARAMIE RESLER
4719 S 300 E
CHURUBUSCO, IN 46723
Phone 260-693-6191

Airport Operational Statistics

Aircraft based on the field: 1
Single engine airplanes: 1
    

Instrument Procedures

There are no published instrument procedures at 19IN.

Some nearby airports with instrument procedures:

C62 - Kendallville Municipal Airport (12 nm N)
KSMD - Smith Field Airport (13 nm SE)
KGWB - De Kalb County Airport (13 nm E)
KFWA - Fort Wayne International Airport (20 nm S)
KASW - Warsaw Municipal Airport (22 nm W)
 
Loc | Ops | Rwys | IFR | FBO | Links
Com | Nav | Svcs | Stats | Notes


 
Aerial photo
No photo
 
Sectional chart

 
Airport distance calculator
Flying to Resler Airport? Find the distance to fly.

From to 19IN

Sunrise and sunset
Times for 24-Nov-2017
 Local
(UTC-5)
 Zulu
(UTC)
Morning civil twilight07:1112:11
Sunrise07:4112:41
Sunset17:1522:15
Evening civil twilight17:4522:45

Current date and time
Zulu (UTC)  24-Nov-2017 11:05:21
Local (UTC-5)  24-Nov-2017 06:05:21
 
METAR
KGWB 
13nm E 
241055Z AUTO 20004KT 10SM CLR 00/M05 A2989 RMK AO2
KFWA 
20nm S 
241054Z 21006KT 10SM CLR M01/M04 A2990 RMK AO2 SLP132 T10061039 $
KASW 
22nm W 
241055Z AUTO 00000KT 10SM CLR 00/M04 A2987 RMK AO2
KGSH 
24nm NW 
241053Z AUTO 19006KT 10SM CLR 01/M05 A2986 RMK AO2 SLP118 T00061050
KHHG 
26nm S 
241055Z AUTO 20004KT 10SM CLR 00/M05 A2989 RMK AO2 T00011049 TSNO
TAF
KFWA 
20nm S 
240520Z 2406/2506 20006KT P6SM FEW250 FM241700 20014G22KT P6SM FEW120 SCT200
NOTAMs
Click for the latest NOTAMs
NOTAMs are issued by the DoD/FAA and will open in a separate window not controlled by AirNav.

 

 
 

Would you like to see your business listed on this page?

 If your business provides an interesting product or service to pilots, flight crews, aircraft, or users of the Resler Airport, you should consider listing it here.  To start the listing process, click on the button below
 
Add a business
 

Other Pages about Resler Airport

Update a link
 
Copyright © AirNav, LLC. All rights reserved. Privacy Policy  Contact